Content
SEND FEEDBACK

Daily
Averages
Monthly
Summary
France

CAEN, FRANCE


Home > Europe > France
Elevation: 220 feet     Latitude: 49 11N     Longitude: 000 27W

WEATHER
 
SELECT A DAY
Number of Records: 221,566;   Date Range: 7/1/96 - 9/30/14
 
SHARE

PRINT THIS DATA

[ ← Previous Day ]
WEATHER ALMANAC - APRIL 8, 2013
[ Next Day → ]
[ °C ]   °F
Weather ElementAverageHighLow
Temperature43 °F50 °F (5:00 pm)37.4 °F (5:00 am)
Dewpoint37.2 °F42.8 °F (8:00 pm)33.8 °F (12:30 am)
Humidity79.7 %93 % (9:00 pm)66 % (2:00 am)
Barometer29.63 in29.80 in (12:30 am)29.53 in (7:00 pm)
Wind Speed5.9 mph10.4 mph (2:00 pm)
Weather ElementAverage
Visibility5.8 mi
Wind DirectionESE (120.2 °)

Weather ElementTotal
Precipitation---
Heating Degree Days21.3 (Base 65)
Averaged from 51 records on April 8, 2013
WEATHER CONDITIONS BREAKOUT
WIND DIRECTION BREAKOUT
WEATHER BY HOUR - APRIL 8, 2013
[ °C ]   °F
Local TimeTemperatureDewpointHumidityBarometerVisibilityWind DirectionWind SpeedGust SpeedPrecipitationEventsConditions
12:30 AM41.0 °F33.8 °F76 %29.80 in6.2 miESE (120°)4.6 mph
1:00 AM41.0 °F33.8 °F76 %29.80 in6.2 miESE (120°)4.6 mph
1:30 AM41.0 °F33.8 °F76 %29.77 in6.2 miEast (100°)4.6 mph
2:00 AM41.0 °F34.0 °F66 %29.79 in6.0 miEast (90°)5.8 mphClear
2:00 AM41.0 °F33.8 °F76 %29.77 in6.2 miEast (90°)5.8 mph
2:30 AM41.0 °F33.8 °F76 %29.74 in6.2 miEast (90°)5.8 mph
3:00 AM41.0 °F33.8 °F76 %29.74 in6.2 miESE (110°)4.6 mph
3:30 AM39.2 °F33.8 °F81 %29.71 in5.6 miSE (140°)3.5 mph
4:00 AM39.2 °F33.8 °F81 %29.71 in5.6 miESE (120°)5.8 mph
4:30 AM39.2 °F33.8 °F81 %29.68 in5.6 miESE (110°)6.9 mph
5:00 AM37.4 °F33.8 °F87 %29.68 in4.3 miESE (110°)5.8 mph
5:30 AM37.4 °F33.8 °F87 %29.65 in5.0 miESE (120°)5.8 mph
6:00 AM39.2 °F33.8 °F81 %29.65 in5.0 miESE (110°)6.9 mph
6:30 AM39.2 °F33.8 °F81 %29.65 in5.0 miESE (120°)4.6 mphMostly Cloudy
7:00 AM39.2 °F33.8 °F81 %29.65 in5.0 miSSE (160°)5.8 mphOvercast
7:30 AM39.2 °F33.8 °F81 %29.65 in5.0 miCalmMostly Cloudy
8:00 AM38.0 °F34.0 °F81 %29.66 in5.0 miEast (100°)3.5 mphOvercast
8:00 AM37.4 °F33.8 °F87 %29.65 in3.7 miEast (100°)3.5 mphOvercast
8:30 AM39.2 °F35.6 °F87 %29.65 in3.7 miESE (120°)3.5 mphOvercast
9:00 AM41.0 °F35.6 °F81 %29.62 in4.3 miSE (130°)4.6 mphOvercast
9:30 AM41.0 °F33.8 °F76 %29.62 in5.0 miNorth
10:00 AM41.0 °F35.6 °F81 %29.62 in5.6 miSSE (160°)5.8 mphRainLight Rain
10:30 AM41.0 °F35.6 °F81 %29.62 in5.6 miSSE (150°)5.8 mphOvercast
11:00 AM42.8 °F35.6 °F76 %29.62 in5.0 miSE (130°)6.9 mphOvercast
11:30 AM42.8 °F35.6 °F76 %29.62 in4.3 miSE (140°)6.9 mphOvercast
12:00 PM42.8 °F37.4 °F81 %29.62 in5.6 miSE (130°)8.1 mphRainLight Rain
12:30 PM42.8 °F35.6 °F76 %29.62 in4.3 miSE (130°)8.1 mphRainLight Rain
1:00 PM42.8 °F39.2 °F87 %29.62 in4.3 miSE (140°)8.1 mphRainLight Rain
1:30 PM42.8 °F39.2 °F87 %29.62 in4.3 miSSE (150°)9.2 mphOvercast
2:00 PM44.0 °F38.0 °F72 %29.62 in5.0 miSSE (150°)10.4 mphRainLight Rain
2:00 PM44.6 °F39.2 °F81 %29.59 in5.0 miSSE (150°)10.4 mphOvercast
2:30 PM44.6 °F39.2 °F81 %29.59 in5.0 miSE (140°)9.2 mphOvercast
3:00 PM46.4 °F39.2 °F76 %29.59 in5.0 miSE (140°)9.2 mphOvercast
3:30 PM46.4 °F41.0 °F81 %29.59 in5.0 miSSE (150°)8.1 mphOvercast
4:00 PM48.2 °F39.2 °F71 %29.59 in6.2 miESE (120°)5.8 mphMostly Cloudy
4:30 PM48.2 °F39.2 °F71 %29.56 in6.2 miESE (120°)5.8 mphScattered Clouds
5:00 PM50.0 °F41.0 °F71 %29.56 in6.2 miSE (130°)5.8 mphMostly Cloudy
5:30 PM50.0 °F39.2 °F66 %29.56 in6.2 miSE (130°)4.6 mphScattered Clouds
6:00 PM50.0 °F39.2 °F66 %29.56 in6.2 miSE (140°)5.8 mphPartly Cloudy
6:30 PM50.0 °F41.0 °F71 %29.56 in6.2 miESE (120°)6.9 mphMostly Cloudy
7:00 PM50.0 °F39.2 °F66 %29.53 in6.2 miSE (130°)8.1 mphMostly Cloudy
7:30 PM46.4 °F41.0 °F81 %29.56 in3.7 miSouth (190°)8.1 mphRainRain
8:00 PM46.0 °F42.0 °F81 %29.57 in22.0 miSSE (160°)2.3 mphClear
8:00 PM46.4 °F42.8 °F87 %29.56 in6.2 miVariable2.3 mphOvercast
8:30 PM46.4 °F42.8 °F87 %29.56 in6.2 miCalmOvercast
9:00 PM44.6 °F42.8 °F93 %29.56 in6.2 miSE (140°)5.8 mphMostly Cloudy
9:30 PM42.8 °F39.2 °F87 %29.53 in6.2 miSouth (170°)5.8 mph
10:00 PM41.0 °F39.2 °F93 %29.53 in6.2 miSSE (150°)5.8 mphMostly Cloudy
10:30 PM44.6 °F41.0 °F87 %29.53 in6.2 miSE (140°)5.8 mphOvercast
11:00 PM44.6 °F41.0 °F87 %29.53 in6.2 miSE (130°)6.9 mphOvercast
11:30 PM44.6 °F41.0 °F87 %29.53 in6.2 miSE (140°)6.9 mphMostly Cloudy
Hourly data recorded from LFRK, located miles away from Caen, France







STORIES FROM OUR PARTNERS